|
NORAD ID: 34038 Int'l Code: 1993-036HZ
Perigee: 744.5 km
Apogee: 805.7 km
Inclination: 74.1 °
Period: 100.2 minutes
Semi major axis: 7146 km
Launch date: June 16, 1993
Source: Commonwealth of Independent States (former USSR) (CIS)
Note: This is SATELLITE DEBRIS
Two Line Element Set (TLE):
1 34038U 93036HZ 13141.24010782 .00004275 00000-0 14309-2 0 1486
2 34038 074.0745 054.6873 0042778 158.6935 346.3914 14.37136014223204
Source:
NASA's NSSDC Master Catalog entry for COSMOS 2251 DEB
|